Simultaneous Nadir Overpasses (SNOs) Predictions

Prediction of SNOs between AQUA and GOES-15 Satellite Orbit:

Table of predicted SNOs for the next 14.0 days since TLE Epoch: 7/21/2023
Index Date Time (AQUA) AQUA Lat,Lon GOES-15 Lat,Lon Distance(km) Time Diff (sec)
1 07/23/2023 14:25:57 -0.88, 171.21 -0.36, 168.66 288.77 80
2 07/24/2023 02:46:52 -0.03, 166.12 0.39, 168.12 228.14 80
3 07/26/2023 02:32:42 1.11, 169.51 0.37, 166.11 387.52 80
4 07/26/2023 14:53:27 -0.17, 164.47 -0.40, 165.60 128.36 80
5 07/28/2023 14:39:16 -1.28, 167.88 -0.39, 163.59 486.53 80
6 07/29/2023 03:00:09 0.34, 162.79 0.42, 163.06 30.70 80
7 07/31/2023 15:06:43 -0.58, 161.15 -0.43, 160.55 68.24 80
8 08/01/2023 03:27:36 -0.41, 156.07 0.45, 160.02 449.22 80
9 08/03/2023 03:13:24 0.74, 159.48 0.44, 158.01 166.31 80
10 08/03/2023 15:34:09 0.18, 154.43 -0.46, 157.50 348.85 80
